Please be sure to check the latest weather conditions by clicking the link and viewing our local weather information!

Check Weather

Welcome to Lakeway Airpark (3R9)

FromTheAir

We’re a community airpark nestled within the town of Lakeway, Texas (17 miles northwest of downtown Austin).

Lakeway Airpark, Inc. was formed by Lakeway residents and interested parties to own and manage Lakeway Airpark (3R9).

The Airpark is a privately owned not for profit public use airport for residents and guests of Lakeway. No public funds are used and the airport is supported by fees and fuel sales at the airport.

Lakeway Airpark is an unmanned facility open for use from Sunrise to Sunset seven days a week. Takeoffs and landings are not permitted at night, between Sunset and Sunrise, by City Ordinance.

Quick Weather Info

Available data for KAUS from the past 2 hours
AUSTIN, TX
Metar
KAUS 181053Z 18007KT 9SM BKN008 26/24 A3003 RMK AO2 SLP155 T02560244

10:53 UTC

Wind: 180° 7kt

Visibility: 9 SM

Sky: BKN 800 ft

Temp: 26 deg C / 78.8 deg F

Dewpoint: 24 deg C / 75.2 deg F

Pressure: 30.03 inHg

TAF
KAUS 181102Z 1811/1912 18007KT P6SM BKN008 FM181300 19007KT P6SM BKN012 FM181500 17015KT P6SM SCT050 FM190800 18010KT P6SM BKN012